SCP
2 1 1 1 1 1 1 1 1 1 1 0 0 0 1 0 0 0 0 0 0 0 0 0 0 0 0 0 0 0 0 0 0 0 0 0 0 0 1 1 0 0 0
1 1 1 1 1 1 1 1 1 1 1 0 1 0 0 0 0 0 0 0 0 0 0 0 0 0 0 0 0 0 0 0 0 0 0 0 0 0 1 0 0 0 0
1 1 1 1 1 1 1 1 1 1 1 1 0 1 1 0 0 0 0 0 0 0 0 0 0 0 0 0 0 0 0 0 0 0 0 0 0 0 0 0 0 0 0
2 1 1 1 1 0 0 0 1 1 0 0 0 1 0 0 0 0 0 0 0 0 0 0 0 0 0 0 0 0 0 0 0 0 0 0 0 0 0 0 0 0 0
1 1 1 1 0 0 0 0 0 0 0 0 0 0 0 0 0 0 0 0 0 0 0 0 0 0 0 0 0 0 0 0 0 0 0 0 0 0 -0 -0 -0 0 0
1 1 1 1 1 0 0 1 0 0 0 0 0 0 0 0 0 0 0 0 0 0 0 0 0 0 0 0 0 0 0 0 0 0 0 0 0 0 0 -0 0 0 0
1 1 1 0 0 0 0 0 0 0 0 0 0 0 0 0 0 0 0 0 0 0 0 0 0 0 0 0 0 0 0 0 0 0 0 0 0 0 0 -0 0 -0 0
0 0 1 0 0 0 0 0 0 0 0 0 0 0 0 0 0 0 0 0 0 0 0 0 0 0 0 0 0 0 0 0 0 0 0 0 0 0 0 0 0 0 -0
0 0 0 0 0 0 0 0 0 0 0 0 0 0 0 0 0 0 0 0 0 0 0 0 0 0 0 0 0 0 0 0 0 0 0 0 0 -0 -0 -0 0 -0 -0
0 0 0 0 0 0 0 0 0 0 0 0 0 0 0 0 0 0 0 0 0 0 0 0 0 0 0 0 0 0 0 0 0 0 0 0 0 0 -0 -0 0 -0 -0
0 0 0 0 0 0 0 0 0 0 0 0 0 0 0 0 0 0 0 0 0 0 0 0 0 0 0 0 0 0 0 0 0 0 0 0 0 0 0 -0 0 -0 0
0 0 0 0 0 0 0 0 0 0 0 0 0 0 0 0 0 0 0 0 0 0 0 0 0 0 0 0 0 0 0 0 0 0 0 0 0 0 0 0 0 0 -0
0 0 0 0 0 0 0 0 0 0 0 0 0 0 0 0 0 0 0 0 0 0 0 0 0 0 0 0 0 0 0 0 0 0 0 0 0 0 0 -0 -0 0 0
0 0 0 0 0 0 0 0 0 0 0 0 0 0 0 0 0 0 0 0 0 0 0 0 0 0 0 0 0 0 0 0 0 -0 0 0 0 0 0 0 0 0 0
0 0 -0 0 0 0 0 0 0 0 0 0 0 0 0 0 0 0 0 0 0 0 0 0 0 0 0 0 0 0 0 0 0 0 0 0 0 0 0 0 0 0 0
0 -0 -0 -0 0 0 0 0 0 0 0 0 0 0 0 0 0 0 0 0 0 0 0 0 0 0 0 0 0 0 0 0 0 0 0 0 0 0 0 0 0 0 0
0 0 0 0 0 0 0 0 0 0 0 0 0 0 0 0 0 0 0 0 0 0 0 0 0 0 0 0 0 0 0 0 0 0 0 0 0 0 0 0 0 0 0
0 0 0 0 0 0 0 0 0 0 0 0 0 0 0 0 0 0 0 0 0 0 0 0 0 0 0 0 0 0 0 0 0 0 0 0 0 0 0 0 0 0 0
0 0 0 0 0 0 0 0 0 0 0 0 0 0 0 0 0 0 0 0 0 0 0 0 0 0 0 0 0 0 0 0 0 0 0 0 0 0 0 0 -0 0 -0
0 0 0 0 0 0 0 0 0 0 0 0 0 0 0 0 0 0 0 0 0 0 0 0 0 0 0 0 0 0 0 0 0 0 0 0 0 0 0 0 -0 -0 -0
0 0 0 0 0 0 0 0 0 0 0 0 0 0 0 0 0 0 0 0 0 0 0 0 0 0 0 0 0 0 0 0 0 0 0 0 0 0 0 0 -0 0 0
0 0 0 0 0 0 0 0 0 0 0 0 0 0 0 0 0 0 0 0 0 0 0 0 0 0 0 0 0 0 0 0 0 0 0 0 0 0 0 0 0 0 0
0 0 0 0 0 0 0 0 0 0 0 0 0 0 0 0 0 0 0 0 0 0 0 0 0 0 0 0 0 0 0 0 0 0 0 0 0 0 0 0 0 0 0
0 0 0 0 0 0 0 0 0 0 0 0 0 0 0 0 0 0 0 0 0 0 0 0 0 0 0 0 0 0 0 0 0 0 0 0 0 0 0 0 0 0 0
0 0 0 0 0 0 0 0 0 0 0 0 0 0 0 0 0 0 0 0 0 0 0 0 0 0 0 0 0 0 0 0 0 0 0 0 0 0 0 0 0 0 0
0 0 0 0 0 0 0 0 0 0 0 0 0 0 0 0 0 0 0 0 0 0 0 0 0 0 -0 0 0 0 0 0 0 0 0 0 0 0 0 0 0 0 0
Wind_Speed_500mb
22 19 16 16 15 12 16 19 19 22 17 9 11 7 12 9 11 9 12 11 4 6 10 9 15 19 26 31 30 31 43 44 46 52 60 57 59 68 55 59 74 76 83
24 19 21 20 16 18 21 26 24 22 16 10 5 6 8 9 11 9 5 4 1 4 5 11 17 29 24 27 29 37 38 41 42 51 60 61 56 49 39 37 44 49 55
29 22 25 24 23 20 27 28 23 18 15 10 9 11 9 12 7 5 5 2 2 2 7 19 20 23 21 24 31 30 33 42 43 43 39 43 43 54 49 38 35 37 26
28 26 27 27 23 23 24 28 23 13 9 11 6 6 4 3 11 2 12 9 6 7 8 12 16 20 22 22 24 29 32 37 41 42 37 40 44 41 34 27 37 32 33
29 28 26 25 24 23 23 23 17 13 8 6 5 5 3 3 3 5 15 11 20 9 9 15 18 18 16 21 25 28 31 32 36 38 41 40 35 37 34 38 28 31 23
34 26 26 26 24 16 17 15 14 11 9 6 11 10 11 4 2 6 7 9 12 13 13 17 19 18 19 21 23 27 26 31 33 35 35 35 31 35 30 32 37 32 25
30 31 27 23 20 17 16 11 12 9 11 14 9 7 4 2 1 3 8 11 9 11 20 22 22 18 22 21 24 27 24 29 32 31 28 27 24 33 29 29 33 28 34
34 31 24 20 17 16 15 13 11 13 13 12 9 5 3 2 5 9 13 7 8 12 22 18 20 20 23 23 23 21 26 23 29 29 24 20 22 23 28 28 25 31 25
36 27 20 14 16 16 16 14 14 14 12 9 6 3 3 5 9 11 5 8 10 15 18 19 19 19 22 24 26 24 30 25 27 27 25 23 22 23 24 25 24 27 31
33 26 23 24 18 19 18 15 13 11 9 7 4 4 7 8 15 11 11 12 15 16 18 21 21 20 22 24 27 26 26 32 28 24 25 24 24 21 22 27 29 26 26
38 28 25 24 23 21 16 15 12 8 5 5 7 9 9 13 16 14 15 17 20 20 20 21 22 23 23 24 28 33 31 29 36 33 29 29 27 24 25 28 23 27 25
37 32 27 27 23 18 15 13 7 5 8 10 10 13 15 16 17 16 17 19 21 22 23 25 24 25 26 26 28 31 31 32 36 38 36 36 24 28 26 24 29 33 31
43 31 27 24 18 14 10 8 8 9 12 14 17 14 16 20 21 20 21 23 23 24 25 27 27 27 28 29 30 31 30 36 37 38 35 35 31 31 27 29 27 29 32
37 20 17 18 18 13 9 9 11 13 16 19 18 18 19 20 21 23 23 25 25 27 29 29 30 31 31 30 30 27 37 38 37 37 35 35 27 32 29 30 33 34 34
28 20 9 5 16 18 10 13 14 16 17 18 16 15 18 19 21 23 24 26 27 29 31 32 32 33 33 31 32 38 39 40 40 35 32 32 32 29 23 24 24 27 26
25 21 26 28 9 11 13 9 11 10 10 9 12 14 16 19 24 27 28 28 29 29 31 33 34 35 34 38 48 43 47 47 40 31 27 32 34 27 28 24 24 25 28
46 36 22 2 5 4 0 6 8 7 6 10 15 18 20 25 29 32 36 36 35 34 34 33 33 35 37 40 47 46 47 52 39 27 32 35 29 36 31 32 27 28 28
12 10 10 13 9 4 3 3 3 8 13 18 23 26 30 34 35 38 41 41 44 43 44 38 35 36 37 41 46 42 45 45 29 28 37 31 28 25 31 25 28 33 35
11 10 8 11 9 5 1 3 7 13 19 23 25 27 32 38 40 43 45 45 45 49 50 43 41 40 40 40 45 41 39 32 32 31 32 24 25 32 35 36 35 33 32
7 8 7 8 6 7 9 8 8 9 13 20 26 28 31 33 35 37 40 42 44 43 40 42 46 44 44 42 42 37 29 29 29 30 29 33 25 30 34 32 28 25 22
10 10 10 11 12 15 14 13 13 17 23 26 26 26 29 30 29 33 31 35 41 42 44 47 48 47 45 42 38 27 28 26 27 32 30 38 31 31 31 24 21 22 19
16 14 12 14 16 15 15 15 19 23 26 28 28 29 30 28 29 33 33 35 34 32 32 34 38 40 37 46 34 28 34 34 34 28 28 34 27 33 31 27 26 26 22
15 13 11 11 14 17 16 15 20 26 27 27 28 29 31 33 35 38 36 37 40 41 38 36 34 34 26 19 22 27 30 29 33 37 33 42 42 44 44 35 29 29 30
12 10 9 10 11 15 19 22 26 30 30 32 31 30 32 35 30 33 30 34 37 34 31 36 40 45 42 37 37 42 42 36 34 36 36 32 38 40 38 38 35 35 32
9 10 10 11 14 18 20 23 27 30 31 32 30 30 32 34 34 29 31 32 29 31 37 33 30 40 47 44 47 50 54 54 45 38 38 33 40 37 36 35 34 34 39
7 8 11 14 16 19 22 26 28 29 30 31 29 32 33 30 30 33 34 29 35 40 39 33 34 32 47 55 56 58 57 56 55 64 60 49 44 43 46 46 42 45 36
Wind_Direction_500mb
160 157 147 142 142 150 156 149 152 145 136 159 171 200 187 205 201 189 259 279 351 339 312 315 323 318 323 319 313 307 317 314 316 311 305 305 304 289 282 284 274 270 262
161 149 138 138 150 149 155 142 144 140 135 145 147 153 194 179 196 232 146 160 136 300 324 329 338 303 321 322 308 317 320 318 320 317 314 312 306 303 294 286 296 298 286
165 154 144 142 136 146 150 149 155 147 155 146 171 164 181 197 218 128 97 264 307 307 324 321 325 324 338 324 318 322 321 322 326 323 318 315 303 310 302 309 300 311 273
166 161 152 147 144 141 152 160 167 156 158 132 194 217 195 219 129 156 236 291 287 315 330 336 334 331 337 320 329 323 328 327 328 322 316 313 307 307 308 290 305 305 248
173 165 155 148 141 146 161 164 165 166 148 132 141 92 155 291 212 250 292 277 287 326 315 342 333 327 340 330 329 329 329 333 323 321 321 323 323 319 298 299 309 305 316
155 162 156 146 142 137 156 157 142 141 133 119 115 132 173 177 209 212 288 287 296 307 298 325 326 329 329 327 338 334 334 332 324 319 323 321 324 317 309 307 305 317 310
152 167 159 148 147 151 164 151 152 132 131 126 125 112 104 126 59 356 303 312 297 298 293 319 323 326 319 329 331 335 337 327 324 324 325 322 320 308 304 314 307 306 300
169 176 155 153 155 160 168 172 165 149 145 146 150 138 94 276 338 317 295 285 302 314 313 314 322 320 320 321 323 344 327 323 319 321 316 321 316 313 309 304 305 319 317
158 145 156 147 147 156 158 157 155 155 153 162 170 208 274 328 305 308 318 288 315 317 301 315 317 318 316 314 315 322 325 322 322 322 312 306 309 307 297 292 298 294 307
154 155 148 140 157 157 151 154 158 166 176 192 217 256 294 317 320 300 290 304 312 318 322 318 314 314 315 314 308 311 311 307 318 308 303 304 301 295 297 296 288 288 284
152 161 151 149 156 154 150 154 157 170 208 253 268 287 295 303 314 291 288 302 310 315 318 315 310 311 311 309 308 310 314 304 305 302 295 294 296 296 285 286 287 287 281
168 162 152 155 159 160 164 170 188 244 277 278 278 288 288 299 311 297 291 299 306 308 312 315 306 303 306 305 307 307 306 306 304 301 300 295 291 285 274 277 276 279 278
165 149 146 152 162 166 177 199 229 271 290 295 295 283 286 294 309 304 290 297 299 301 303 306 305 299 299 302 305 303 307 305 300 297 297 293 284 282 277 267 265 267 276
117 133 134 177 182 188 220 241 262 285 291 299 290 286 289 297 302 303 297 292 298 294 294 297 303 299 298 297 301 298 306 305 297 290 287 286 290 280 284 280 274 268 265
80 84 220 234 198 189 228 264 272 285 288 290 281 284 293 298 298 296 295 291 289 292 292 293 296 300 299 300 284 297 307 305 300 289 280 283 280 281 280 282 279 272 270
25 196 236 237 207 245 249 269 277 260 271 271 283 288 292 296 295 291 289 287 286 285 287 288 291 293 298 293 291 299 305 311 301 288 283 270 276 283 282 282 295 285 268
236 242 234 305 208 278 138 256 244 243 257 273 282 287 286 288 291 289 285 281 279 280 281 283 287 291 289 292 298 307 307 310 297 270 275 279 274 272 268 276 285 299 285
24 31 68 94 89 81 94 135 225 266 276 284 288 290 288 287 287 287 282 282 281 280 279 282 281 283 289 290 297 311 310 314 303 280 280 282 282 273 280 271 279 278 283
75 87 100 106 115 96 31 304 290 290 291 295 298 301 297 294 293 291 287 293 287 282 279 277 278 278 281 284 289 304 307 306 289 285 275 293 298 285 285 288 285 282 265
82 86 92 105 92 5 341 329 301 293 286 307 310 312 306 298 298 297 292 290 290 286 283 278 275 276 279 280 292 299 298 299 291 280 279 268 282 291 292 281 284 281 287
72 102 100 61 25 15 19 17 1 347 332 330 324 316 293 294 313 291 285 291 293 292 289 287 281 276 275 269 276 299 305 295 291 286 282 284 270 297 290 286 281 276 278
84 76 59 43 24 16 25 11 356 344 343 339 336 332 326 327 317 315 309 293 289 291 287 300 296 293 299 289 255 286 313 315 292 282 277 282 292 289 288 283 284 283 262
79 75 74 49 37 20 9 4 341 335 335 332 328 326 323 322 323 321 319 323 316 292 295 280 286 284 316 304 284 267 263 271 286 294 272 265 273 274 280 280 281 279 269
66 55 45 37 17 5 3 354 346 340 340 333 331 325 324 318 321 318 311 312 314 319 322 319 302 292 286 277 281 270 264 250 259 280 281 282 265 267 261 259 270 275 271
57 33 19 1 354 353 350 348 343 343 341 337 336 328 325 327 324 319 315 314 308 314 319 315 320 314 303 303 300 286 283 277 273 247 256 272 266 263 261 258 255 255 262
52 17 3 349 336 336 339 341 343 344 342 341 333 329 331 326 323 321 319 316 316 319 324 320 319 327 323 324 318 300 293 289 291 278 264 263 263 271 270 269 266 260 252
Wind_Speed_850mb
22 19 16 16 15 12 16 19 19 22 17 9 11 7 12 9 11 9 12 11 4 6 10 9 15 19 26 31 30 31 43 44 46 52 60 57 59 68 55 59 74 76 83
24 19 21 20 16 18 21 26 24 22 16 10 5 6 8 9 11 9 5 4 1 4 5 11 17 29 24 27 29 37 38 41 42 51 60 61 56 49 39 37 44 49 55
29 22 25 24 23 20 27 28 23 18 15 10 9 11 9 12 7 5 5 2 2 2 7 19 20 23 21 24 31 30 33 42 43 43 39 43 43 54 49 38 35 37 26
28 26 27 27 23 23 24 28 23 13 9 11 6 6 4 3 11 2 12 9 6 7 8 12 16 20 22 22 24 29 32 37 41 42 37 40 44 41 34 27 37 32 33
29 28 26 25 24 23 23 23 17 13 8 6 5 5 3 3 3 5 15 11 20 9 9 15 18 18 16 21 25 28 31 32 36 38 41 40 35 37 34 38 28 31 23
34 26 26 26 24 16 17 15 14 11 9 6 11 10 11 4 2 6 7 9 12 13 13 17 19 18 19 21 23 27 26 31 33 35 35 35 31 35 30 32 37 32 25
30 31 27 23 20 17 16 11 12 9 11 14 9 7 4 2 1 3 8 11 9 11 20 22 22 18 22 21 24 27 24 29 32 31 28 27 24 33 29 29 33 28 34
34 31 24 20 17 16 15 13 11 13 13 12 9 5 3 2 5 9 13 7 8 12 22 18 20 20 23 23 23 21 26 23 29 29 24 20 22 23 28 28 25 31 25
36 27 20 14 16 16 16 14 14 14 12 9 6 3 3 5 9 11 5 8 10 15 18 19 19 19 22 24 26 24 30 25 27 27 25 23 22 23 24 25 24 27 31
33 26 23 24 18 19 18 15 13 11 9 7 4 4 7 8 15 11 11 12 15 16 18 21 21 20 22 24 27 26 26 32 28 24 25 24 24 21 22 27 29 26 26
38 28 25 24 23 21 16 15 12 8 5 5 7 9 9 13 16 14 15 17 20 20 20 21 22 23 23 24 28 33 31 29 36 33 29 29 27 24 25 28 23 27 25
37 32 27 27 23 18 15 13 7 5 8 10 10 13 15 16 17 16 17 19 21 22 23 25 24 25 26 26 28 31 31 32 36 38 36 36 24 28 26 24 29 33 31
43 31 27 24 18 14 10 8 8 9 12 14 17 14 16 20 21 20 21 23 23 24 25 27 27 27 28 29 30 31 30 36 37 38 35 35 31 31 27 29 27 29 32
37 20 17 18 18 13 9 9 11 13 16 19 18 18 19 20 21 23 23 25 25 27 29 29 30 31 31 30 30 27 37 38 37 37 35 35 27 32 29 30 33 34 34
28 20 9 5 16 18 10 13 14 16 17 18 16 15 18 19 21 23 24 26 27 29 31 32 32 33 33 31 32 38 39 40 40 35 32 32 32 29 23 24 24 27 26
25 21 26 28 9 11 13 9 11 10 10 9 12 14 16 19 24 27 28 28 29 29 31 33 34 35 34 38 48 43 47 47 40 31 27 32 34 27 28 24 24 25 28
46 36 22 2 5 4 0 6 8 7 6 10 15 18 20 25 29 32 36 36 35 34 34 33 33 35 37 40 47 46 47 52 39 27 32 35 29 36 31 32 27 28 28
12 10 10 13 9 4 3 3 3 8 13 18 23 26 30 34 35 38 41 41 44 43 44 38 35 36 37 41 46 42 45 45 29 28 37 31 28 25 31 25 28 33 35
11 10 8 11 9 5 1 3 7 13 19 23 25 27 32 38 40 43 45 45 45 49 50 43 41 40 40 40 45 41 39 32 32 31 32 24 25 32 35 36 35 33 32
7 8 7 8 6 7 9 8 8 9 13 20 26 28 31 33 35 37 40 42 44 43 40 42 46 44 44 42 42 37 29 29 29 30 29 33 25 30 34 32 28 25 22
10 10 10 11 12 15 14 13 13 17 23 26 26 26 29 30 29 33 31 35 41 42 44 47 48 47 45 42 38 27 28 26 27 32 30 38 31 31 31 24 21 22 19
16 14 12 14 16 15 15 15 19 23 26 28 28 29 30 28 29 33 33 35 34 32 32 34 38 40 37 46 34 28 34 34 34 28 28 34 27 33 31 27 26 26 22
15 13 11 11 14 17 16 15 20 26 27 27 28 29 31 33 35 38 36 37 40 41 38 36 34 34 26 19 22 27 30 29 33 37 33 42 42 44 44 35 29 29 30
12 10 9 10 11 15 19 22 26 30 30 32 31 30 32 35 30 33 30 34 37 34 31 36 40 45 42 37 37 42 42 36 34 36 36 32 38 40 38 38 35 35 32
9 10 10 11 14 18 20 23 27 30 31 32 30 30 32 34 34 29 31 32 29 31 37 33 30 40 47 44 47 50 54 54 45 38 38 33 40 37 36 35 34 34 39
7 8 11 14 16 19 22 26 28 29 30 31 29 32 33 30 30 33 34 29 35 40 39 33 34 32 47 55 56 58 57 56 55 64 60 49 44 43 46 46 42 45 36
Wind_Direction_850mb
160 157 147 142 142 150 156 149 152 145 136 159 171 200 187 205 201 189 259 279 351 339 312 315 323 318 323 319 313 307 317 314 316 311 305 305 304 289 282 284 274 270 262
161 149 138 138 150 149 155 142 144 140 135 145 147 153 194 179 196 232 146 160 136 300 324 329 338 303 321 322 308 317 320 318 320 317 314 312 306 303 294 286 296 298 286
165 154 144 142 136 146 150 149 155 147 155 146 171 164 181 197 218 128 97 264 307 307 324 321 325 324 338 324 318 322 321 322 326 323 318 315 303 310 302 309 300 311 273
166 161 152 147 144 141 152 160 167 156 158 132 194 217 195 219 129 156 236 291 287 315 330 336 334 331 337 320 329 323 328 327 328 322 316 313 307 307 308 290 305 305 248
173 165 155 148 141 146 161 164 165 166 148 132 141 92 155 291 212 250 292 277 287 326 315 342 333 327 340 330 329 329 329 333 323 321 321 323 323 319 298 299 309 305 316
155 162 156 146 142 137 156 157 142 141 133 119 115 132 173 177 209 212 288 287 296 307 298 325 326 329 329 327 338 334 334 332 324 319 323 321 324 317 309 307 305 317 310
152 167 159 148 147 151 164 151 152 132 131 126 125 112 104 126 59 356 303 312 297 298 293 319 323 326 319 329 331 335 337 327 324 324 325 322 320 308 304 314 307 306 300
169 176 155 153 155 160 168 172 165 149 145 146 150 138 94 276 338 317 295 285 302 314 313 314 322 320 320 321 323 344 327 323 319 321 316 321 316 313 309 304 305 319 317
158 145 156 147 147 156 158 157 155 155 153 162 170 208 274 328 305 308 318 288 315 317 301 315 317 318 316 314 315 322 325 322 322 322 312 306 309 307 297 292 298 294 307
154 155 148 140 157 157 151 154 158 166 176 192 217 256 294 317 320 300 290 304 312 318 322 318 314 314 315 314 308 311 311 307 318 308 303 304 301 295 297 296 288 288 284
152 161 151 149 156 154 150 154 157 170 208 253 268 287 295 303 314 291 288 302 310 315 318 315 310 311 311 309 308 310 314 304 305 302 295 294 296 296 285 286 287 287 281
168 162 152 155 159 160 164 170 188 244 277 278 278 288 288 299 311 297 291 299 306 308 312 315 306 303 306 305 307 307 306 306 304 301 300 295 291 285 274 277 276 279 278
165 149 146 152 162 166 177 199 229 271 290 295 295 283 286 294 309 304 290 297 299 301 303 306 305 299 299 302 305 303 307 305 300 297 297 293 284 282 277 267 265 267 276
117 133 134 177 182 188 220 241 262 285 291 299 290 286 289 297 302 303 297 292 298 294 294 297 303 299 298 297 301 298 306 305 297 290 287 286 290 280 284 280 274 268 265
80 84 220 234 198 189 228 264 272 285 288 290 281 284 293 298 298 296 295 291 289 292 292 293 296 300 299 300 284 297 307 305 300 289 280 283 280 281 280 282 279 272 270
25 196 236 237 207 245 249 269 277 260 271 271 283 288 292 296 295 291 289 287 286 285 287 288 291 293 298 293 291 299 305 311 301 288 283 270 276 283 282 282 295 285 268
236 242 234 305 208 278 138 256 244 243 257 273 282 287 286 288 291 289 285 281 279 280 281 283 287 291 289 292 298 307 307 310 297 270 275 279 274 272 268 276 285 299 285
24 31 68 94 89 81 94 135 225 266 276 284 288 290 288 287 287 287 282 282 281 280 279 282 281 283 289 290 297 311 310 314 303 280 280 282 282 273 280 271 279 278 283
75 87 100 106 115 96 31 304 290 290 291 295 298 301 297 294 293 291 287 293 287 282 279 277 278 278 281 284 289 304 307 306 289 285 275 293 298 285 285 288 285 282 265
82 86 92 105 92 5 341 329 301 293 286 307 310 312 306 298 298 297 292 290 290 286 283 278 275 276 279 280 292 299 298 299 291 280 279 268 282 291 292 281 284 281 287
72 102 100 61 25 15 19 17 1 347 332 330 324 316 293 294 313 291 285 291 293 292 289 287 281 276 275 269 276 299 305 295 291 286 282 284 270 297 290 286 281 276 278
84 76 59 43 24 16 25 11 356 344 343 339 336 332 326 327 317 315 309 293 289 291 287 300 296 293 299 289 255 286 313 315 292 282 277 282 292 289 288 283 284 283 262
79 75 74 49 37 20 9 4 341 335 335 332 328 326 323 322 323 321 319 323 316 292 295 280 286 284 316 304 284 267 263 271 286 294 272 265 273 274 280 280 281 279 269
66 55 45 37 17 5 3 354 346 340 340 333 331 325 324 318 321 318 311 312 314 319 322 319 302 292 286 277 281 270 264 250 259 280 281 282 265 267 261 259 270 275 271
57 33 19 1 354 353 350 348 343 343 341 337 336 328 325 327 324 319 315 314 308 314 319 315 320 314 303 303 300 286 283 277 273 247 256 272 266 263 261 258 255 255 262
52 17 3 349 336 336 339 341 343 344 342 341 333 329 331 326 323 321 319 316 316 319 324 320 319 327 323 324 318 300 293 289 291 278 264 263 263 271 270 269 266 260 252